Skip Page Navigation
NASA JPL Caltech
NASA Logo - Jet Propulsion Laboratory + View the NASA Portal
+ Center for Near-Earth Object Studies
JPL Home Earth Solar System Stars & Galaxies Technology
JPL Solar System Dynamics
BODIES ORBITS EPHEMERIDES TOOLS PHYSICAL DATA DISCOVERY FAQ SITE MAP
IMPORTANT: The SSD Announcement email list is now available. Major changes are coming in the near future, including possible hostname and/or URL changes. To be notified of such changes, subscribe to this email list.

Please visit this page for more details.


JPL Small-Body Database Browser
Search: [ help ]  
382488 (2001 DE79)
Classification: Main-belt Asteroid          SPK-ID: 2382488
Ephemeris | Orbit Diagram | Orbital Elements | Mission Design | Physical Parameters | Discovery Circumstances | Close-Approach Data ]

[ show orbit diagram ]
Orbital Elements at Epoch 2458600.5 (2019-Apr-27.0) TDB
Reference: JPL 19 (heliocentric ecliptic J2000)
 Element Value Uncertainty (1-sigma)   Units 
e .293258693677316 8.3431e-08  
a 2.67917856811283 2.808e-08 au
q 1.8934861610998 2.2631e-07 au
i 12.99073467443742 1.1755e-05 deg
node 301.535748306478 2.4504e-05 deg
peri 235.3902749979852 3.0748e-05 deg
M 43.42546422146896 2.1823e-05 deg
tp 2458407.284089184012
(2018-Oct-15.78408918)
9.5216e-05 TDB
period 1601.772810971291
4.39
2.5182e-05
6.894e-08
d
yr
n .2247509743792576 3.5334e-09 deg/d
Q 3.464870975125861 3.6315e-08 au
  Orbit Determination Parameters
   # obs. used (total)      191  
   data-arc span      6176 days (16.91 yr)  
   first obs. used      2001-02-22  
   last obs. used      2018-01-20  
   planetary ephem.      DE431  
   SB-pert. ephem.      SB431-N16  
   condition code      0  
   norm. resid. RMS      .54983  
   source      ORB  
   producer      Otto Matic  
   solution date      2018-Oct-04 11:37:55  

Additional Information
 Earth MOID = .932767 au 
 Jupiter MOID = 1.71065 au 
 T_jup = 3.279 
[ show covariance matrix ]

Ephemeris | Orbit Diagram | Orbital Elements | Mission Design | Physical Parameters | Discovery Circumstances | Close-Approach Data ]

Physical Parameter Table
Parameter Symbol Value Units Sigma Reference Notes
absolute magnitude H 16.2   n/a MPO434370  
diameter diameter 3.762 km 1.156 urn:nasa:pds:neowise_diameters_albedos::2.0[mainbelt] (http://adsabs.harvard.edu/abs/2015ApJ...814..117N)  
geometric albedo albedo 0.034   0.032 urn:nasa:pds:neowise_diameters_albedos::2.0[mainbelt] (http://adsabs.harvard.edu/abs/2015ApJ...814..117N)  

382488 (2001 DE79)          Discovered 2001-Feb-22 by LINEAR at Socorro
Reference: Last Updated: 2014-01-21

[ show close-approach data ]
Alternate Designations
 2001 DE79 = 2010 BG78 
Ephemeris | Orbit Diagram | Orbital Elements | Mission Design | Physical Parameters | Discovery Circumstances | Close-Approach Data ]
ABOUT SSD CREDITS/AWARDS PRIVACY/COPYRIGHT GLOSSARY LINKS
FirstGov
(server date/time)  
NASA Home Page
Site Manager:   Ryan S. Park
Webmaster  Alan B. Chamberlin